Colwell, IA

7:55 PM CST on December 04, 2016 (GMT -0600)
Charles City Municipal

Weather History for KCCY - March, 2013

Change the Weather History Date:

Wednesday, March 20, 2013

  Actual Average Record
Temperature  
Mean Temperature 14 °F -  
Max Temperature 19 °F 44 °F 73 °F (2012)
Min Temperature 8 °F 27 °F -4 °F (1965)
Degree Days  
Heating Degree Days 52    
Moisture  
Dew Point 3 °F    
Average Humidity 62    
Maximum Humidity 73    
Minimum Humidity 53    
Precipitation  
Precipitation 0.00 in - - ()
Sea Level Pressure  
Sea Level Pressure 30.16 in    
Wind  
Wind Speed 21 mph (NW)    
Max Wind Speed 29 mph    
Max Gust Speed 36 mph    
Visibility 10 miles    
Events      
Averages and records for this station are not official NWS values.
T = Trace of Precipitation, MM = Missing Value Source: NWS Daily Summary

Daily Weather History Graph

Daily Weather History Graph

Search for Another Location

Airport or City:

Trip Planner

Search our weather history database for the weather conditions in past years. The results will help you decide how hot, cold, wet, or windy it might be!

Date:

Astronomy

Mar. 20, 2013 Rise Set
Actual Time 7:13 AM CDT 7:23 PM CDT
Civil Twilight 6:44 AM CDT 7:51 PM CDT
Nautical Twilight 6:11 AM CDT 8:24 PM CDT
Astronomical Twilight 5:37 AM CDT 8:58 PM CDT
Moon 12:50 PM CDT (3/20) 3:01 AM CDT (3/20)
Length of Visible Light 13h 06m
Length of Day
12h 09m
First Quarter, 59% of the Moon is Illuminated
Mar 20
First Quarter
Mar 27
Full
Apr 2
Last Quarter
Apr 10
New
Apr 18
First Quarter

Hourly Weather History & Observations

Time (CDT) Temp. Windchill Dew Point Humidity Pressure Visibility Wind Dir Wind Speed Gust Speed Precip Events Conditions
12:15 AM 12.2 °F -6.7 °F 3.2 °F 67% 30.19 in 10.0 mi NW 21.9 mph 32.2 mph N/A   Clear
12:35 AM 12.2 °F -7.1 °F 1.4 °F 62% 30.19 in 10.0 mi NW 23.0 mph 31.1 mph N/A   Clear
12:55 AM 12.2 °F -7.1 °F 1.4 °F 62% 30.19 in 10.0 mi NW 23.0 mph 31.1 mph N/A   Clear
1:15 AM 12.2 °F -6.3 °F 1.4 °F 62% 30.19 in 10.0 mi NW 20.7 mph 33.4 mph N/A   Clear
1:35 AM 12.2 °F -6.7 °F 1.4 °F 62% 30.19 in 10.0 mi NW 21.9 mph 27.6 mph N/A   Clear
1:55 AM 12.2 °F -5.3 °F 1.4 °F 62% 30.19 in 10.0 mi NW 18.4 mph 26.5 mph N/A   Clear
2:15 AM 10.4 °F -8.6 °F 3.2 °F 73% 30.20 in 10.0 mi WNW 20.7 mph 28.8 mph N/A   Clear
2:35 AM 10.4 °F -7.7 °F 1.4 °F 67% 30.20 in 10.0 mi WNW 18.4 mph 28.8 mph N/A   Clear
2:55 AM 10.4 °F -8.6 °F 1.4 °F 67% 30.20 in 10.0 mi WNW 20.7 mph 27.6 mph N/A   Clear
3:15 AM 10.4 °F -7.7 °F 1.4 °F 67% 30.20 in 10.0 mi NW 18.4 mph 27.6 mph N/A   Clear
3:35 AM 10.4 °F -9.1 °F -0.4 °F 62% 30.20 in 10.0 mi NW 21.9 mph - N/A   Clear
3:55 AM 10.4 °F -8.6 °F -0.4 °F 62% 30.19 in 10.0 mi NW 20.7 mph 31.1 mph N/A   Clear
4:15 AM 10.4 °F -9.5 °F -0.4 °F 62% 30.19 in 10.0 mi WNW 23.0 mph 28.8 mph N/A   Clear
4:35 AM 8.6 °F -10.0 °F 1.4 °F 73% 30.20 in 10.0 mi WNW 18.4 mph 24.2 mph N/A   Clear
4:55 AM 8.6 °F -10.0 °F 1.4 °F 73% 30.20 in 10.0 mi WNW 18.4 mph 26.5 mph N/A   Clear
5:15 AM 8.6 °F -10.5 °F 1.4 °F 73% 30.20 in 10.0 mi NW 19.6 mph 28.8 mph N/A   Clear
5:55 AM 8.6 °F -10.5 °F -0.4 °F 67% 30.20 in 10.0 mi NW 19.6 mph 27.6 mph N/A   Clear
6:15 AM 8.6 °F -11.0 °F -0.4 °F 67% 30.20 in 10.0 mi NW 20.7 mph 27.6 mph N/A   Clear
6:35 AM 8.6 °F -10.5 °F -0.4 °F 67% 30.20 in 10.0 mi WNW 19.6 mph 25.3 mph N/A   Clear
6:55 AM 8.6 °F -10.0 °F -0.4 °F 67% 30.20 in 10.0 mi WNW 18.4 mph 24.2 mph N/A   Clear
7:15 AM 8.6 °F -10.0 °F -0.4 °F 67% 30.20 in 10.0 mi WNW 18.4 mph 25.3 mph N/A   Clear
7:35 AM 8.6 °F -9.5 °F -0.4 °F 67% 30.21 in 10.0 mi WNW 17.3 mph 24.2 mph N/A   Clear
7:55 AM 8.6 °F -10.0 °F -0.4 °F 67% 30.21 in 10.0 mi NW 18.4 mph 28.8 mph N/A   Clear
8:15 AM 8.6 °F -12.3 °F -0.4 °F 67% 30.22 in 10.0 mi NW 24.2 mph 31.1 mph N/A   Clear
8:35 AM 8.6 °F -11.9 °F -0.4 °F 67% 30.21 in 10.0 mi NW 23.0 mph 31.1 mph N/A   Clear
8:55 AM 10.4 °F -10.7 °F -0.4 °F 62% 30.21 in 10.0 mi NW 26.5 mph - N/A   Clear
9:15 AM 10.4 °F -9.9 °F -0.4 °F 62% 30.21 in 10.0 mi NW 24.2 mph 32.2 mph N/A   Clear
9:35 AM 10.4 °F -10.7 °F -0.4 °F 62% 30.21 in 10.0 mi NW 26.5 mph 33.4 mph N/A   Clear
9:55 AM 12.2 °F -6.7 °F -0.4 °F 57% 30.21 in 10.0 mi NW 21.9 mph 33.4 mph N/A   Clear
10:15 AM 12.2 °F -8.6 °F -0.4 °F 57% 30.21 in 10.0 mi NW 27.6 mph 34.5 mph N/A   Clear
10:35 AM 12.2 °F -7.1 °F -0.4 °F 57% 30.21 in 10.0 mi NW 23.0 mph 35.7 mph N/A   Clear
10:55 AM 14.0 °F -5.5 °F 1.4 °F 57% 30.20 in 10.0 mi NW 25.3 mph 32.2 mph N/A   Clear
11:15 AM 14.0 °F -5.1 °F 1.4 °F 57% 30.20 in 10.0 mi NW 24.2 mph 32.2 mph N/A   Clear
11:35 AM 14.0 °F -5.8 °F 1.4 °F 57% 30.20 in 10.0 mi NW 26.5 mph 35.7 mph N/A   Clear
11:55 AM 15.8 °F -4.1 °F 1.4 °F 53% 30.19 in 10.0 mi NW 28.8 mph 35.7 mph N/A   Clear
12:15 PM 15.8 °F -3.1 °F 1.4 °F 53% 30.18 in 10.0 mi NW 25.3 mph 34.5 mph N/A   Clear
12:55 PM 15.8 °F -3.1 °F 3.2 °F 58% 30.18 in 10.0 mi NW 25.3 mph 35.7 mph N/A   Clear
1:15 PM 17.6 °F -1.0 °F 3.2 °F 53% 30.17 in 10.0 mi NW 26.5 mph 32.2 mph N/A   Clear
1:35 PM 17.6 °F -0.3 °F 5.0 °F 58% 30.17 in 10.0 mi WNW 24.2 mph 33.4 mph N/A   Clear
1:55 PM 17.6 °F -0.6 °F 5.0 °F 58% 30.16 in 10.0 mi WNW 25.3 mph 32.2 mph N/A   Clear
2:15 PM 17.6 °F 0.5 °F 5.0 °F 58% 30.15 in 10.0 mi WNW 21.9 mph 31.1 mph N/A   Clear
2:35 PM 17.6 °F 0.1 °F 5.0 °F 58% 30.15 in 10.0 mi WNW 23.0 mph 31.1 mph N/A   Partly Cloudy
2:55 PM 17.6 °F 0.9 °F 5.0 °F 58% 30.14 in 10.0 mi WNW 20.7 mph 35.7 mph N/A   Clear
3:15 PM 17.6 °F -1.3 °F 5.0 °F 58% 30.13 in 10.0 mi WNW 27.6 mph 34.5 mph N/A   Scattered Clouds
3:35 PM 19.4 °F 2.5 °F 5.0 °F 54% 30.12 in 10.0 mi WNW 23.0 mph 34.5 mph N/A   Partly Cloudy
3:55 PM 19.4 °F 2.1 °F 6.8 °F 58% 30.12 in 10.0 mi WNW 24.2 mph 34.5 mph N/A   Clear
4:15 PM 19.4 °F 0.8 °F 6.8 °F 58% 30.11 in 10.0 mi WNW 28.8 mph - N/A   Clear
4:35 PM 19.4 °F 1.1 °F 5.0 °F 54% 30.11 in 10.0 mi WNW 27.6 mph 35.7 mph N/A   Clear
4:55 PM 19.4 °F 1.8 °F 5.0 °F 54% 30.11 in 10.0 mi NW 25.3 mph 34.5 mph N/A   Clear
5:15 PM 19.4 °F 1.1 °F 6.8 °F 58% 30.11 in 10.0 mi WNW 27.6 mph - N/A   Clear
5:35 PM 19.4 °F 3.6 °F 5.0 °F 54% 30.12 in 10.0 mi WNW 19.6 mph 33.4 mph N/A   Clear
5:55 PM 19.4 °F 2.5 °F 5.0 °F 54% 30.12 in 10.0 mi WNW 23.0 mph 28.8 mph N/A   Partly Cloudy
6:15 PM 19.4 °F 3.2 °F 6.8 °F 58% 30.11 in 10.0 mi WNW 20.7 mph 26.5 mph N/A   Mostly Cloudy
6:35 PM 17.6 °F 0.9 °F 5.0 °F 58% 30.11 in 10.0 mi NW 20.7 mph - N/A   Scattered Clouds
6:55 PM 17.6 °F 1.3 °F 5.0 °F 58% 30.11 in 10.0 mi NW 19.6 mph 25.3 mph N/A   Partly Cloudy
7:15 PM 17.6 °F 1.7 °F 5.0 °F 58% 30.11 in 10.0 mi NW 18.4 mph - N/A   Clear
7:35 PM 15.8 °F 2.1 °F 5.0 °F 62% 30.11 in 10.0 mi NW 12.7 mph 20.7 mph N/A   Mostly Cloudy
7:55 PM 15.8 °F 2.1 °F 5.0 °F 62% 30.11 in 10.0 mi NNW 12.7 mph - N/A   Mostly Cloudy
8:15 PM 15.8 °F 1.4 °F 5.0 °F 62% 30.11 in 10.0 mi NNW 13.8 mph - N/A   Scattered Clouds
8:35 PM 14.0 °F -0.2 °F 5.0 °F 67% 30.11 in 10.0 mi NW 12.7 mph - N/A   Partly Cloudy
8:55 PM 14.0 °F -2.0 °F 5.0 °F 67% 30.11 in 10.0 mi NW 16.1 mph - N/A   Clear
9:15 PM 14.0 °F 0.5 °F 3.2 °F 62% 30.12 in 10.0 mi NNW 11.5 mph - N/A   Clear
9:35 PM 14.0 °F -0.8 °F 3.2 °F 62% 30.12 in 10.0 mi NW 13.8 mph - N/A   Clear
9:55 PM 14.0 °F -0.2 °F 3.2 °F 62% 30.12 in 10.0 mi NW 12.7 mph - N/A   Clear
10:15 PM 12.2 °F -2.5 °F 3.2 °F 67% 30.12 in 10.0 mi NW 12.7 mph - N/A   Clear
10:35 PM 12.2 °F -2.5 °F 3.2 °F 67% 30.12 in 10.0 mi NW 12.7 mph - N/A   Clear
10:55 PM 12.2 °F -2.5 °F 3.2 °F 67% 30.12 in 10.0 mi NW 12.7 mph - N/A   Clear
11:15 PM 12.2 °F -2.5 °F 3.2 °F 67% 30.12 in 10.0 mi NW 12.7 mph - N/A   Clear
11:35 PM 12.2 °F -2.5 °F 3.2 °F 67% 30.12 in 10.0 mi NW 12.7 mph - N/A   Clear
11:55 PM 12.2 °F -1.0 °F 3.2 °F 67% 30.11 in 10.0 mi NW 10.4 mph - N/A   Clear